Terminal Aerodrome Forecast
Issued by NWS

Home | Current Version | Previous Version | Text Only | Print | Product List | Glossary On
Versions: 1 2 3 4 5 6 7 8 9 10 11 12 13 14 15 16 17
000
FTUS45 KRIW 021720
TAFCOD
TAF
KCOD 021720Z 0218/0318 02010G16KT P6SM SCT110
     FM022100 36013G20KT P6SM VCTS SCT060CB BKN110
     FM030400 VRB05KT P6SM SCT120
      AMD LTD TO CLD VIS AND WIND=

USA.gov is the U.S. government's official web portal to all federal, state and local government web resources and services.